Total_Precipitation_Accumulation
0.09 0.04 0.09 0.16 0.16 0.13 0.33 0.49 0.87 0.32 0.23 0.32 0.33 0.45 0.62 0.39 0.45 0.31 0.67 0.81 0.61 0.64 0.59 0.58 0.65 0.68 0.76 0.66 0.65 0.72 0.68 0.69 0.60 0.73 1.13 1.34 1.66 1.67 1.42 1.16 1.09 1.12 1.14 1.21
0.45 0.05 0.06 0.15 0.11 0.09 0.06 0.07 0.15 0.17 0.18 0.05 0.05 0.11 0.09 0.10 0.11 0.21 0.37 0.28 0.29 0.22 0.23 0.27 0.33 0.39 0.52 0.61 0.53 0.49 0.50 0.46 0.63 0.78 0.69 0.77 0.74 0.67 0.73 0.87 0.91 0.80 0.65 0.65
0.90 0.14 0.47 0.87 0.12 0.05 0.16 0.24 0.20 0.22 0.17 0.03 0.07 0.10 0.15 0.13 0.11 0.12 0.12 0.07 0.15 0.21 0.17 0.27 0.29 0.31 0.44 0.57 0.57 0.41 0.35 0.35 0.40 0.41 0.42 0.38 0.33 0.36 0.43 0.49 0.55 0.68 0.81 0.69
1.52 0.90 2.07 0.72 0.05 0.04 0.20 0.14 0.07 0.12 0.07 0.05 0.06 0.17 0.14 0.07 0.06 0.08 0.07 0.07 0.06 0.09 0.06 0.13 0.26 0.44 0.52 0.55 0.60 0.58 0.39 0.29 0.23 0.22 0.26 0.34 0.49 0.59 0.61 0.60 0.50 0.51 0.67 1.09
1.99 1.47 0.71 0.13 0.09 0.13 0.19 0.34 0.22 0.18 0.13 0.06 0.05 0.20 0.31 0.11 0.09 0.10 0.07 0.05 0.01 0.02 0.01 0.02 0.10 0.38 0.76 0.90 0.72 0.70 0.57 0.50 0.40 0.41 0.48 0.63 0.79 0.89 0.82 0.79 0.89 0.87 0.86 0.93
2.55 2.03 0.90 0.24 0.16 0.07 0.20 0.73 0.74 0.41 0.37 0.32 0.21 0.40 0.44 0.16 0.12 0.07 0.03 0.01 0.01 0.01 0.01 0.03 0.09 0.27 0.48 0.88 1.04 0.86 0.87 0.81 0.83 0.78 0.80 0.91 0.90 0.80 0.80 0.91 0.97 1.08 1.15 0.87
2.66 2.49 1.04 0.24 0.08 0.11 0.63 1.21 0.89 0.86 1.07 0.91 0.94 1.06 0.63 0.37 0.15 0.04 0.00 0.00 0.01 0.02 0.02 0.02 0.08 0.24 0.57 0.84 1.30 1.38 1.19 1.30 1.24 1.16 1.14 1.04 0.96 0.91 0.95 1.01 1.04 0.96 0.89 0.90
2.43 2.50 1.28 0.27 0.43 0.94 1.03 0.60 0.77 1.28 1.52 1.29 1.10 0.80 0.45 0.14 0.06 0.02 0.00 0.01 0.01 0.01 0.03 0.04 0.06 0.10 0.30 0.74 1.50 2.08 1.90 1.56 1.51 1.36 1.07 0.97 0.89 0.88 0.89 0.88 0.95 0.93 0.81 0.79
1.34 1.05 0.52 0.38 0.65 0.83 0.71 0.76 0.87 0.77 0.81 0.57 0.44 0.21 0.07 0.04 0.01 0.00 0.00 0.00 0.01 0.02 0.05 0.09 0.11 0.12 0.20 0.33 0.66 1.69 2.51 2.44 1.93 1.41 1.29 1.26 1.21 1.16 1.06 0.98 0.92 0.99 0.97 0.96
1.25 0.69 0.37 0.54 0.41 0.54 0.80 0.73 0.46 0.43 0.42 0.38 0.26 0.16 0.11 0.04 0.03 0.01 0.01 0.02 0.03 0.05 0.06 0.04 0.05 0.10 0.23 0.37 0.59 1.01 1.59 2.17 2.48 2.48 1.74 1.55 1.73 1.66 1.75 1.72 1.46 1.41 1.50 1.54
1.47 1.51 0.97 0.62 0.58 0.60 0.64 0.62 0.62 0.35 0.26 0.28 0.37 0.32 0.27 0.24 0.12 0.06 0.08 0.11 0.09 0.11 0.11 0.08 0.11 0.16 0.24 0.42 0.54 0.63 0.89 1.37 1.70 2.46 2.40 1.56 1.45 1.60 1.50 1.81 1.89 1.67 1.53 1.56
1.36 1.35 1.66 1.18 1.31 1.03 0.88 0.50 0.32 0.19 0.23 0.18 0.12 0.14 0.18 0.24 0.35 0.34 0.30 0.32 0.25 0.18 0.16 0.17 0.21 0.23 0.29 0.31 0.34 0.41 0.67 1.13 1.41 1.70 2.37 2.30 1.72 2.04 2.38 2.41 2.36 2.41 2.45 2.21
0.52 0.64 1.02 1.30 0.90 0.46 0.49 0.51 0.29 0.12 0.10 0.05 0.04 0.08 0.18 0.36 0.45 0.46 0.44 0.39 0.38 0.43 0.41 0.32 0.26 0.27 0.28 0.27 0.29 0.38 0.51 0.67 1.05 1.47 1.88 2.15 2.27 2.03 2.19 2.47 2.28 2.15 2.15 2.02
0.16 0.39 0.51 0.37 0.36 0.23 0.22 0.31 0.22 0.21 0.15 0.11 0.12 0.14 0.19 0.38 0.89 1.29 1.23 0.90 0.69 0.59 0.62 0.70 0.71 0.84 0.91 0.85 0.78 0.79 0.94 1.26 1.29 1.45 1.91 2.30 2.46 2.40 2.23 1.99 1.88 2.20 2.20 2.09
0.09 0.15 0.29 0.21 0.14 0.15 0.12 0.15 0.15 0.14 0.18 0.18 0.13 0.17 0.33 0.55 0.71 0.94 1.45 1.61 1.53 1.45 1.48 1.38 1.34 1.78 1.85 1.70 1.65 1.66 1.50 1.55 1.60 1.76 1.84 1.96 2.09 2.11 2.00 1.93 1.87 1.90 1.89 1.78
0.15 0.08 0.07 0.11 0.13 0.14 0.12 0.16 0.20 0.13 0.07 0.07 0.15 0.27 0.27 0.41 0.49 0.60 0.91 1.17 1.28 1.64 1.95 1.98 2.01 2.04 1.75 1.58 1.34 1.32 1.32 1.19 1.01 1.05 1.28 1.47 1.50 1.56 1.70 1.73 1.73 1.71 1.69 1.80
0.33 0.15 0.10 0.15 0.15 0.16 0.17 0.19 0.21 0.16 0.11 0.11 0.16 0.22 0.21 0.24 0.45 0.84 1.14 1.22 1.36 1.52 1.55 1.42 1.43 1.21 0.97 0.93 0.81 0.78 0.83 0.82 0.74 0.74 0.81 0.89 1.06 1.20 1.29 1.29 1.34 1.35 1.45 1.51
0.19 0.12 0.17 0.42 0.41 0.23 0.14 0.13 0.19 0.17 0.18 0.21 0.35 0.49 0.51 0.58 0.84 1.25 1.57 1.47 1.06 1.02 1.12 1.07 0.88 0.70 0.61 0.62 0.55 0.51 0.52 0.51 0.56 0.65 0.69 0.72 0.78 0.84 0.84 0.85 0.93 0.97 1.09 1.09
0.30 0.40 0.29 0.29 0.33 0.28 0.23 0.24 0.22 0.27 0.35 0.37 0.50 0.78 0.97 1.08 1.04 0.97 0.93 0.88 0.92 0.78 0.88 0.63 0.54 0.45 0.39 0.43 0.39 0.44 0.46 0.47 0.47 0.48 0.54 0.58 0.60 0.70 0.77 0.74 0.73 0.79 0.81 0.83
0.27 0.25 0.27 0.24 0.23 0.26 0.24 0.28 0.33 0.46 0.60 0.53 0.59 0.68 0.66 0.73 0.64 0.65 0.64 0.61 0.60 0.55 0.39 0.38 0.37 0.37 0.38 0.39 0.31 0.33 0.36 0.39 0.37 0.43 0.53 0.56 0.66 0.69 0.64 0.58 0.62 0.68 0.72 0.77
0.41 0.20 0.20 0.28 0.31 0.41 0.47 0.52 0.52 0.61 0.80 0.65 0.57 0.70 0.77 0.95 0.90 0.80 0.63 0.46 0.45 0.32 0.29 0.29 0.26 0.29 0.30 0.35 0.35 0.35 0.43 0.45 0.48 0.54 0.52 0.54 0.53 0.51 0.54 0.53 0.57 0.59 0.64 0.66
0.69 0.69 0.58 0.54 0.53 0.66 0.70 0.69 0.56 0.60 0.66 0.74 0.77 0.77 0.76 0.88 0.79 0.69 0.53 0.45 0.37 0.30 0.28 0.28 0.24 0.25 0.25 0.31 0.35 0.41 0.44 0.45 0.42 0.41 0.44 0.44 0.46 0.48 0.49 0.48 0.51 0.52 0.54 0.56
1.08 1.04 1.07 0.90 0.74 0.84 0.91 0.80 0.80 0.69 0.77 0.80 0.77 0.75 0.64 0.68 0.59 0.48 0.47 0.33 0.29 0.31 0.31 0.29 0.25 0.25 0.26 0.34 0.41 0.44 0.45 0.41 0.38 0.40 0.41 0.41 0.43 0.45 0.46 0.44 0.45 0.50 0.50 0.48
0.79 0.79 0.96 0.88 0.75 0.65 0.71 0.85 0.76 0.76 0.74 0.82 0.76 0.69 0.60 0.57 0.53 0.40 0.39 0.36 0.33 0.31 0.33 0.32 0.23 0.20 0.26 0.36 0.36 0.35 0.38 0.36 0.34 0.37 0.37 0.36 0.38 0.37 0.38 0.38 0.37 0.35 0.40 0.40
0.66 0.62 0.60 0.59 0.59 0.66 0.61 0.61 0.60 0.70 0.68 0.78 0.75 0.63 0.46 0.41 0.52 0.43 0.36 0.33 0.28 0.25 0.28 0.25 0.17 0.19 0.28 0.32 0.33 0.32 0.34 0.32 0.30 0.37 0.38 0.36 0.34 0.32 0.31 0.31 0.31 0.31 0.32 0.32
0.74 0.73 0.65 0.57 0.58 0.54 0.49 0.50 0.56 0.67 0.61 0.66 0.62 0.50 0.48 0.41 0.39 0.37 0.31 0.27 0.20 0.20 0.26 0.31 0.25 0.25 0.28 0.30 0.31 0.31 0.31 0.30 0.28 0.31 0.32 0.31 0.31 0.30 0.29 0.29 0.30 0.29 0.30 0.29
0.63 0.58 0.47 0.47 0.51 0.50 0.51 0.53 0.51 0.54 0.51 0.51 0.55 0.44 0.45 0.43 0.40 0.41 0.39 0.34 0.30 0.31 0.32 0.33 0.30 0.27 0.28 0.31 0.35 0.32 0.31 0.31 0.28 0.29 0.31 0.32 0.33 0.34 0.34 0.34 0.34 0.35 0.35 0.35